Location: Bergnershof
(48.9468°N, 10.9431°E)
Time: 02:53:33
(UTC+00:00)

Cosmos 2184 Rocket - Pass Details

Date: 03 March 2021
Orbit: 960 x 1001 km, 82.9° (Epoch: 11 April)

Event Time Altitude Azimuth Distance (km) Brightness Sun altitude
Rises 17:54:39 0° 189° (S) 3,630 7.1 -9.3°
Reaches altitude 10° 17:57:08 10° 190° (S) 2,690 6.4 -9.7°
Maximum altitude 18:03:18 84° 278° (W) 978 4.1 -10.7°
Drops below altitude 10° 18:09:33 10° 8° (N) 2,727 6.3 -11.7°
Sets 18:12:05 0° 9° (N) 3,684 7.0 -12.1°
